Kokomo, IN

10:41 AM EDT on October 22, 2019 (GMT -0400)
Kokomo Municipal

Weather History for KOKK - September, 2019

Change the Weather History Date:

Saturday, September 21, 2019

  Actual Average (KGUS) Record (KGUS)
Temperature  
Mean Temperature 76 °F -  
Max Temperature 86 °F 71 °F 92 °F (2010)
Min Temperature 66 °F 51 °F 32 °F (1996)
Cooling Degree Days 11    
Growing Degree Days 26 (Base 50)    
Moisture  
Dew Point 66 °F    
Average Humidity 75    
Maximum Humidity 100    
Minimum Humidity 49    
Precipitation  
Precipitation 0.00 in - - ()
Sea Level Pressure  
Sea Level Pressure 30.15 in    
Wind  
Wind Speed 8 mph (SSW)    
Max Wind Speed 16 mph    
Max Gust Speed 25 mph    
Visibility 10 miles    
Events      
Averages and records for this station are not official NWS values.
T = Trace of Precipitation, MM = Missing Value Source: NWS Daily Summary

Daily Weather History Graph

Daily Weather History Graph

Search for Another Location

Airport or City:

Astronomy

Sep. 21, 2019 Rise Set
Actual Time 6:30 AM CDT 6:43 PM CDT
Civil Twilight 6:03 AM CDT 7:10 PM CDT
Nautical Twilight 5:31 AM CDT 7:42 PM CDT
Astronomical Twilight 4:58 AM CDT 8:15 PM CDT
Moon 11:19 PM CDT (9/21) 1:37 PM CDT (9/21)
Length of Visible Light 13h 07m
Length of Day
12h 12m
Waning Gibbous, 54% of the Moon is Illuminated
Sep 21
Waning Gibbous
Sep 21
Last Quarter
Sep 28
New
Oct 5
First Quarter
Oct 13
Full

Hourly Weather History & Observations

Time (CDT) Temp. Heat Index Dew Point Humidity Pressure Visibility Wind Dir Wind Speed Gust Speed Precip Events Conditions
12:56 AM 69.1 °F - 68.0 °F 96% 30.15 in 10.0 mi SSW 4.6 mph - N/A   Scattered Clouds
1:56 AM 68.0 °F - 66.0 °F 93% 30.15 in 10.0 mi SSW 4.6 mph - N/A   Clear
2:56 AM 70.0 °F - 66.9 °F 90% 30.16 in 10.0 mi SW 5.8 mph - N/A   Clear
3:56 AM 69.1 °F - 68.0 °F 96% 30.17 in 10.0 mi SW 5.8 mph - N/A   Clear
4:56 AM 68.0 °F - 66.9 °F 96% 30.18 in 10.0 mi SSW 5.8 mph - N/A   Clear
5:56 AM 66.0 °F - 66.0 °F 100% 30.19 in 8.0 mi SSW 4.6 mph - N/A   Clear
6:56 AM 66.0 °F - 66.0 °F 100% 30.20 in 5.0 mi South 3.5 mph - N/A   Clear
7:56 AM 70.0 °F - 69.1 °F 97% 30.21 in 7.0 mi South 5.8 mph - N/A   Mostly Cloudy
8:56 AM 77.0 °F - 72.0 °F 84% 30.21 in 10.0 mi SSW 6.9 mph - N/A   Partly Cloudy
9:56 AM 80.1 °F 83.2 °F 70.0 °F 71% 30.20 in 10.0 mi SW 11.5 mph - N/A   Clear
10:56 AM 82.0 °F 85.9 °F 70.0 °F 67% 30.19 in 10.0 mi SSW 12.7 mph - N/A   Clear
11:56 AM 82.0 °F 84.5 °F 66.9 °F 60% 30.18 in 10.0 mi SW 15.0 mph - N/A   Clear
12:56 PM 82.0 °F 83.8 °F 64.9 °F 56% 30.17 in 10.0 mi SW 15.0 mph 23.0 mph N/A   Clear
1:56 PM 84.0 °F 86.3 °F 66.0 °F 55% 30.16 in 10.0 mi SW 15.0 mph 25.3 mph N/A   Clear
2:56 PM 84.0 °F 85.8 °F 64.9 °F 53% 30.14 in 10.0 mi SSW 16.1 mph 24.2 mph N/A   Clear
3:56 PM 86.0 °F 87.6 °F 64.9 °F 49% 30.12 in 10.0 mi SW 11.5 mph - N/A   Scattered Clouds
4:56 PM 82.0 °F 83.1 °F 63.0 °F 52% 30.12 in 10.0 mi WSW 12.7 mph - N/A   Clear
5:56 PM 80.1 °F 81.7 °F 64.0 °F 58% 30.12 in 10.0 mi SSW 8.1 mph - N/A   Clear
6:56 PM 78.1 °F - 64.0 °F 62% 30.12 in 10.0 mi SSW 9.2 mph - N/A   Clear
7:56 PM 75.9 °F - 64.0 °F 67% 30.12 in 10.0 mi South 10.4 mph - N/A   Mostly Cloudy
8:56 PM 73.9 °F - 64.0 °F 71% 30.12 in 10.0 mi South 6.9 mph - N/A   Clear
9:56 PM 72.0 °F - 64.9 °F 78% 30.11 in 10.0 mi South 6.9 mph - N/A   Mostly Cloudy
10:56 PM 73.0 °F - 63.0 °F 71% 30.09 in 10.0 mi South 9.2 mph - N/A   Scattered Clouds
11:56 PM 72.0 °F - 62.1 °F 71% 30.07 in 10.0 mi South 8.1 mph - N/A   Clear